This is the latest recevied weather packets stored in our database for station/object DL3TR-13. If no packets are shown the sender has not sent any weather packets the latest 10 day(s).
| Time | Temp. | Humidity | Pressure | Rain* | Wind** | Luminosity | Snow |
|---|---|---|---|---|---|---|---|
| 1777412006 | 14.44° C | 44% | 1015.5 hPa | 0 mm | - | 0 W/m² | - |
| 1777411392 | 14.44° C | 44% | 1015.5 hPa | 0 mm | - | 0 W/m² | - |
| 1777410791 | 13.89° C | 45% | 1015.5 hPa | 0 mm | - | 0 W/m² | - |
| 1777410192 | 13.33° C | 48% | 1015.4 hPa | 0 mm | - | 0 W/m² | - |
| 1777409591 | 13.33° C | 47% | 1015.4 hPa | 0 mm | - | 0 W/m² | - |
| 1777408992 | 13.89° C | 47% | 1015.5 hPa | 0 mm | - | 0 W/m² | - |
| 1777408392 | 13.89° C | 46% | 1015.6 hPa | 0 mm | - | 0 W/m² | - |
| 1777407792 | 14.44° C | 45% | 1015.5 hPa | 0 mm | - | 0 W/m² | - |
| 1777407191 | 14.44° C | 45% | 1015.5 hPa | 0 mm | - | 0 W/m² | - |
| 1777406592 | 14.44° C | 45% | 1015.6 hPa | 0 mm | - | 0 W/m² | - |
| 1777405992 | 14.44° C | 45% | 1015.5 hPa | 0 mm | - | 0 W/m² | - |
| 1777405392 | 14.44° C | 45% | 1015.6 hPa | 0 mm | - | 0 W/m² | - |
| 1777404791 | 15° C | 43% | 1015.4 hPa | 0 mm | - | 0 W/m² | - |
| 1777404191 | 15° C | 44% | 1015.3 hPa | 0 mm | - | 0 W/m² | - |
| 1777403591 | 15° C | 43% | 1015.2 hPa | 0 mm | - | 0 W/m² | - |
| 1777402991 | 15° C | 44% | 1015.1 hPa | 0 mm | - | 0 W/m² | - |
| 1777402391 | 15° C | 45% | 1015.1 hPa | 0 mm | - | 0 W/m² | - |
| 1777401791 | 15° C | 46% | 1015.1 hPa | 0 mm | - | 0 W/m² | - |
| 1777401191 | 15.56° C | 46% | 1015 hPa | 0 mm | - | 0 W/m² | - |
| 1777400591 | 15.56° C | 44% | 1014.9 hPa | 0 mm | - | 0 W/m² | - |
| 1777399992 | 16.11° C | 43% | 1014.8 hPa | 0 mm | - | 5 W/m² | - |
| 1777399391 | 16.11° C | 43% | 1014.6 hPa | 0 mm | - | 9 W/m² | - |
| 1777398791 | 16.67° C | 42% | 1014.5 hPa | 0 mm | - | 12 W/m² | - |
| 1777398191 | 16.67° C | 43% | 1014.4 hPa | 0 mm | - | 18 W/m² | - |
| 1777397591 | 16.67° C | 42% | 1014.2 hPa | 0 mm | - | 21 W/m² | - |
* Rain latest hour (hover to see other rain measurements)
** Current wind speed in m/s (hover to see current wind gust speed)